Hourly Data Report for October 25, 2016

All times are specified in Local Standard Time (LST). Add 1 hour to adjust for Daylight Saving Time where and when it is observed.

IQALUIT CLIMATE
NUNAVUT

63°44'50.000" N
68°32'40.000" W
33.50 m
2402592
71321
XFB

Download Data

Hourly Data (October 2016)
Hourly Data Report for October 25, 2016
Temp Definition
°C
Dew Point Temp Definition
°C
Rel Hum Definition
%
Wind Dir Definition
10's deg

Wind Spd Definition
km/h
Visibility Definition
km
Stn Press Definition
kPa
Hmdx Definition


Wind Chill Definition


Weather Definition


TIME
00:00 -8.6 -11.1 83 33 18   101.92   -16 LegendNANA
01:00 -8.1 -10.5 83 33 23   101.89   -16 LegendNANA
02:00 -8.0 -10.6 82 33 25   101.87   -16 LegendNANA
03:00 -7.5 -10.0 83 33 30   101.85   -16 LegendNANA
04:00 -7.7 -10.3 81 33 32   101.87   -17 LegendNANA
05:00 -7.5 -10.3 80 33 30   101.91   -16 LegendNANA
06:00 -7.5 -10.2 80 33 28   101.93   -16 LegendNANA
07:00 -7.3 -10.1 81 34 18   101.98   -14 LegendNANA
08:00 -7.0 -9.6 82 33 14   101.99   -13 LegendNANA
09:00 -6.8 -9.2 83 33 18   101.98   -13 LegendNANA
10:00 -6.6 -9.0 83 33 22   101.97   -14 LegendNANA
11:00 -6.4 -8.6 84 32 19   101.98   -13 LegendNANA
12:00 -6.2 -8.3 85 33 13   101.97   -12 LegendNANA
13:00 -5.8 -8.0 84 33 23   102.01   -13 LegendNANA
14:00 -7.2 -8.8 89 34 17   102.02   -14 LegendNANA
15:00 -6.6 -7.5 93 33 9   102.02   -11 LegendNANA
16:00 -6.5 -7.5 93 31 4   102.02   -8 LegendNANA
17:00 -5.9 -7.6 88 33 12   102.05   -11 LegendNANA
18:00 -5.6 -8.5 80 33 20   102.07   -12 LegendNANA
19:00 -6.1 -8.8 81 33 20   102.09   -13 LegendNANA
20:00 -6.8 -9.1 84 32 15   102.09   -13 LegendNANA
21:00 -8.0 -9.7 88 31 7   102.09   -12 LegendNANA
22:00 -8.3 -10.0 87 33 9   102.06   -13 LegendNANA
23:00 -7.4 -8.9 89 32 13   102.07   -13 LegendNANA

Notes on Data Quality.

Legend

  • E = Estimated
  • M = Missing
  • NA = Not Available
  • ‡ = Partner data that is not subject to review by the National Climate Archives
Date modified: